Location: *
(44.3925°N, 5.4708°E)
Time: 16:44:38
(UTC+00:00)

Cosmos 614 Rocket - Pass Details

Date: 18 September 2019
Orbit: 733 x 764 km, 74.1° (Epoch: 13 October)

Event Time Altitude Azimuth Distance (km) Brightness Sun altitude
Rises 19:50:46 0° 336° (NNW) 3,237 8.0 -22.6°
Reaches altitude 10° 19:53:10 10° 333° (NNW) 2,304 7.2 -23.0°
Maximum altitude 19:58:19 63° 254° (WSW) 843 4.3 -23.8°
Enters shadow 20:00:12 38° 188° (S) 1,145 4.7 -24.1°
